Terug naar catalogus

STARLINK-38133

ActiefCommunicatieSSO
NORAD 100216·PAYLOAD·🇺🇸 United States

Gelanceerd Aug 4, 2026 vanaf Vandenberg Space Force Base

Loading…

Volgende Passages (komende 24 uur)

TLE

VersSource: Space-Track

Epoch: Sep 14, 2026, 15:31 UTC

1 A0216U 26177D   26257.64695376 -.00486166  00000-0 -75767-2 0  9997
2 A0216  97.2838 308.5297 0001305  78.2081 281.9320 15.55481385  6463

Volg STARLINK-38133 in realtime met AllMySat

Download on the App Store